Preview of NWS' New Version of Forecast
This preview is not operational and should not be used for support decisions.

Regional Weather Roundup (RWR)

Issued by National Weather Service (NWS)

                            
000
ASUS42 KTBW 240816
RWRFL 
FLORIDA REGIONAL WEATHER ROUNDUP
NATIONAL WEATHER SERVICE TAMPA BAY RUSKIN FL
400 AM EDT FRI MAY 24 2019

NOTE: "FAIR" INDICATES FEW OR NO CLOUDS BELOW 12,000 FEET WITH NO
SIGNIFICANT WEATHER AND/OR OBSTRUCTIONS TO VISIBILITY.

FLZ001>010-012>015-112-114-115-240900-
PANHANDLE FLORIDA
  
CITY           SKY/WX    TMP DP  RH WIND       PRES   REMARKS
PENSACOLA      FAIR      73  71  93 CALM      30.09F                  
PENSACOLA NAS  FAIR      68  68 100 CALM      30.09F                  
MILTON NAS     FAIR      67  67 100 CALM      30.10F FOG              
CRESTVIEW      FAIR      67  64  90 MISG      30.12S                  
DUKE FIELD     FAIR      67  67 100 CALM      30.11S                  
VALPARAISO     FAIR      72  68  87 CALM      30.10S                  
PANAMA CITY    FAIR      71  69  93 NE3       30.11S                  
TYNDALL AFB    FAIR      74  70  89 NE3       30.11S                  
APALACHICOLA   FAIR      78  68  71 SE10      30.10F                  

STATION/POSITION SKY/WX   TEMP    WIND        PRES    WAVE   SWELL
                          AIR SEA DIR/SP/G            HT/PER HT/PER
                          (F)     (DEG/KT/KT) (MB)    (FT/S) (FT/S)
30.1N   87.6W                                   N/A     4/ 7
29.2N   88.2W                     150/  8/ 10 1018.7F
PANAMA CITY BEAC           75 83   40/  4/  6 1020.0S
TOWER C          NOT AVBL

$$
FLZ011-016>038-118-127-128-134-139-239-240900-
NORTH FLORIDA
  
CITY           SKY/WX    TMP DP  RH WIND       PRES   REMARKS
MARIANNA       FAIR      76  68  76 SE3       30.11F                  
TALLAHASSEE    FAIR      72  65  78 SE7       30.13S                  
PERRY          FAIR      69  66  91 SE3       30.14S                  
LIVE OAK       CLEAR     64  64 100 CALM      30.14R FOG              
CROSS CITY     FAIR      64  62  94 CALM      30.13F                  
LAKE CITY      FAIR      63  63 100 CALM      30.14S                  
GAINESVILLE    FAIR      67  63  87 CALM      30.16S                  
WILLISTON      FAIR      65  63  94 CALM      30.13F                  
PALATKA        FOG      N/A N/A N/A CALM      30.13F VSB 1            
MAYPORT NAS    FAIR      75  66  73 SE6       30.13F                  
JACKSONVILLE   FAIR      65  64  97 CALM      30.13F FOG              
JAX NAS        FAIR      76  65  68 SE5       30.14S                  
JAX CECIL      FAIR      61  59  94 CALM      30.14S                  
FERNANDINA BEA FAIR      73  67  80 SE5       30.14S                  
ST AUGUSTINE   FAIR      72  65  78 SE6       30.14F                  
PALM COAST     FAIR      66  63  90 CALM      30.13F                  

STATION/POSITION SKY/WX   TEMP    WIND        PRES    WAVE   SWELL
                          AIR SEA DIR/SP/G            HT/PER HT/PER
                          (F)     (DEG/KT/KT) (MB)    (FT/S) (FT/S)
SHELL POINT      NOT AVBL
KEATON BEACH               69      80/  5/  6 1020.4F
CEDAR KEY                  74      90/ 10/ 12 1020.1F
FERNANDINA                 76 81  110/  2/  3 1021.3F
30.7N   81.3W                 80                N/A     3/ 7
MAYPORT                    75 81  140/  2/  3 1020.8F
31.4N   80.9W              76 78  180/ 10/ 12 1020.4F   2/ 7   2/ 7
ST AUGUSTINE               76 80  120/ 10/ 11 1020.4F

$$
FLZ040-043>046-052-053-057-058-063-144-240900-
INTERIOR CENTRAL FLORIDA
  
CITY           SKY/WX    TMP DP  RH WIND       PRES   REMARKS
OCALA          FAIR      67  65  93 CALM      30.14F                  
LEESBURG       FAIR      69  65  86 CALM      30.13F                  
SANFORD        FAIR      69  64  84 NE5       30.12F                  
ORLANDO EXEC   FAIR      71  65  81 NE5       30.12F                  
ORLANDO INTL   FAIR      70  64  81 E3        30.12F                  
KISSIMMEE      FAIR      70  65  84 E5        30.13F                  
WINTER HAVEN   FAIR      72  66  81 E6        30.12F                  
BARTOW         MOCLDY    68  64  88 E3        30.11F                  
SEBRING        FAIR      67  63  88 E5        30.11F                  
OKEECHOBEE     FAIR      63  61  94 CALM      30.10F                  

$$
FLZ041-047-054-059-064-141-147-240900-
EAST CENTRAL FLORIDA
  
CITY           SKY/WX    TMP DP  RH WIND       PRES   REMARKS
DAYTONA BEACH  FAIR      71  65  81 CALM      30.13F                  
DELAND         FAIR      64  63  94 CALM      30.12F                  
CAPE CANAVERAL FAIR      72  58  61 SE7       30.10F                  
PATRICK AFB    FAIR      76  65  67 E15       30.10F                  
MELBOURNE      FAIR      77  63  61 E13       30.10F                  
VERO BEACH     FAIR      74  62  66 E9        30.10F                  
FT PIERCE      MOCLDY    74  62  66 E7        30.10S                  
STUART         FAIR      75  61  60 E9        30.11                   

STATION/POSITION SKY/WX   TEMP    WIND        PRES    WAVE   SWELL
                          AIR SEA DIR/SP/G            HT/PER HT/PER
                          (F)     (DEG/KT/KT) (MB)    (FT/S) (FT/S)
28.5N   80.2W              77      90/ 10/ 14 1020.0F   5/ 6   3/ 6
28.9N   78.5W              75 79   90/ 12/ 16 1020.4    5/ 7   3/ 7
TRIDENT PIER               75 81   80/  7/ 11 1021.0F
28.4N   80.5W                 80                N/A     3/ 7
27.5N   80.2W                 78                N/A     5/ 7

$$
FLZ050-056-061-142-242-148-248-149-249-151-251-155-255-
160-260-240900-
WEST CENTRAL FLORIDA
  
CITY           SKY/WX    TMP DP  RH WIND       PRES   REMARKS
CRYSTAL RIVER  FAIR      66  64  94 CALM      30.13S                  
INVERNESS      FAIR      68  68 100 CALM      30.13F                  
BROOKSVILLE    FAIR      66  63  90 CALM      30.13S                  
CLEARWATER AIR FAIR      73  63  68 E7        30.10F                  
ST PETE CLEARW FAIR      73  65  75 E8        30.10F                  
TAMPA INTL     FAIR      74  64  71 CALM      30.11F                  
TAMPA EXEC     FAIR      64  63  94 CALM      30.12F FOG              
PLANT CITY     FAIR      68  66  94 NE3       30.13F                  
MACDILL AFB    FAIR      71  65  80 SE7       30.10F                  
PETER O KNIGHT CLOUDY    72  68  88 E5        30.11F                  
ST PETERSBURG    N/A    N/A N/A N/A MISG      30.09F                  
SARASOTA       FAIR      71  65  81 E5        30.08F                  
VENICE         CLOUDY    70  64  83 E8        30.10F                  

STATION/POSITION SKY/WX   TEMP    WIND        PRES    WAVE   SWELL
                          AIR SEA DIR/SP/G            HT/PER HT/PER
                          (F)     (DEG/KT/KT) (MB)    (FT/S) (FT/S)
27.3N   84.2W                 80                N/A     5/ 5
CLEARWATER BEACH           76 85  120/  8/ 11 1019.4F
MIDDLE TAMPA BAY           74     110/ 11/ 13 1019.6F
VENICE                     71 83   70/  6/  9 1018.9F

$$
FLZ066-069-070-075>078-162-262-165-265-240900-
SOUTHWEST FLORIDA AND KEYS
  
CITY           SKY/WX    TMP DP  RH WIND       PRES   REMARKS
PUNTA GORDA    FAIR      66  63  90 NE7       30.11S                  
FT MYERS       FAIR      70  65  84 NE9       30.08S                  
SOUTHWEST INTL FAIR      70  64  81 NE8       30.08F                  
NAPLES         FAIR      70  65  84 NE9       30.07F                  
MARCO ISLAND   FAIR      69  65  86 NE8       30.08S                  
IMMOKALEE      CLOUDY    66  63  88 NE5       30.07S                  
MARATHON       FAIR      81  63  54 E10       30.02S                  
KEY WEST NAS   FAIR      80  69  69 NE13G20   30.02F                  
KEY WEST INTL  FAIR      78  70  76 NE14G20   30.02F                  

STATION/POSITION SKY/WX   TEMP    WIND        PRES    WAVE   SWELL
                          AIR SEA DIR/SP/G            HT/PER HT/PER
                          (F)     (DEG/KT/KT) (MB)    (FT/S) (FT/S)
NAPLES                     72 83              1018.2F
DRY TORTUGAS               79      90/ 21/ 24 1016.5F
SAND KEY                   80                 1016.2F
SOMBRERO KEY               80                 1015.8F

$$
FLZ067-068-071>074-168-172>174-240900-
SOUTHEAST FLORIDA 
  
CITY           SKY/WX    TMP DP  RH WIND       PRES   REMARKS
W PALM BEACH   PTCLDY    76  62  62 E17       30.09S                  
FT LAUDER-EXEC FAIR      77  63  61 E14       30.06F                  
FT LAUDERDALE  FAIR      77  65  66 E13       30.05F                  
POMPANO BEACH  FAIR      77  63  61 E13       30.07S                  
PEMBROKE PINES FAIR      76  64  66 E8        30.07F                  
OPA LOCKA      FAIR      77  64  64 E13       30.06F                  
MIAMI          FAIR      78  65  63 E13G21    30.05F                  
WEST KENDALL   CLOUDY    77  65  66 E8        30.05F                  
HOMESTEAD      MOCLDY    77  68  72 NE13      30.03F                  

STATION/POSITION SKY/WX   TEMP    WIND        PRES    WAVE   SWELL
                          AIR SEA DIR/SP/G            HT/PER HT/PER
                          (F)     (DEG/KT/KT) (MB)    (FT/S) (FT/S)
PORT EVERGLADES            78      70/ 12/ 17 1018.0F
VIRGINIA KEY               79 83   50/ 15/ 19 1016.9F
LAKE WORTH                 77 80              1019.7F
SETTLEMENT POINT           77      80/ 14/ 16 1018.8F

$$